F4EEX Weather Reports


time (UTC)temp
C
wind
direction
speed
KPH
gust
KPH
rain 1hr
cm
rain 24hr
cm
rain mn
cm
humidity
%
barometer
mb
20260505180244 18 323 0.0 1.6 0.00 0.71 0.53 57 1009.1
20260505175744 17 334 0.0 1.6 0.00 0.71 0.53 57 1009.1
20260505175244 18 337 0.0 4.8 0.00 0.86 0.53 56 1009.0
20260505174744 18 329 0.0 0.0 0.00 0.86 0.53 56 1009.1
20260505174244 18 330 0.0 4.8 0.00 0.86 0.53 56 1009.1
20260505173744 18 300 3.2 4.8 0.00 0.86 0.53 55 1009.2
20260505173244 18 11 0.0 0.0 0.00 0.86 0.53 56 1009.1
20260505172744 18 11 0.0 11.3 0.00 0.86 0.53 56 1009.1
20260505172244 18 300 0.0 14.5 0.00 0.86 0.53 56 1009.1
20260505171744 18 300 0.0 0.0 0.00 0.86 0.53 54 1009.1
20260505171244 18 300 0.0 0.0 0.00 0.86 0.53 53 1009.1
20260505170744 18 300 0.0 0.0 0.00 0.86 0.53 53 1009.1
20260505170244 18 300 0.0 0.0 0.00 0.86 0.53 52 1009.1
20260505165744 19 300 0.0 0.0 0.00 0.86 0.53 51 1009.2
20260505165244 19 300 0.0 0.0 0.00 0.86 0.53 50 1009.2
20260505164744 20 300 0.0 0.0 0.00 0.86 0.53 49 1009.3
20260505164244 20 300 0.0 0.0 0.00 0.86 0.53 50 1009.3
20260505163744 20 300 0.0 0.0 0.00 0.86 0.53 49 1009.3
20260505163244 20 300 0.0 0.0 0.00 0.86 0.53 51 1009.3
20260505162744 20 300 0.0 0.0 0.00 0.86 0.53 51 1009.2
20260505162244 20 300 0.0 0.0 0.00 0.86 0.53 51 1009.3
20260505161744 19 300 0.0 0.0 0.00 0.86 0.53 52 1009.2
20260505161244 20 300 0.0 0.0 0.00 0.86 0.53 52 1009.3
20260505160744 20 300 0.0 0.0 0.00 0.86 0.53 53 1009.4
20260505160244 20 300 0.0 0.0 0.00 0.86 0.53 54 1009.4
20260505153244 18 300 0.0 0.0 0.00 0.89 0.53 56 1009.6
20260505152744 18 300 0.0 0.0 0.00 0.89 0.53 58 1009.6
20260505152244 18 300 0.0 0.0 0.00 0.89 0.53 58 1009.5
20260505151744 18 300 0.0 0.0 0.00 0.89 0.53 59 1009.6
20260505151244 18 300 0.0 0.0 0.00 0.89 0.53 58 1009.5
20260505150744 19 300 0.0 0.0 0.00 0.89 0.53 60 1009.4
20260505150244 18 300 0.0 0.0 0.00 0.89 0.53 60 1009.4
20260505140245 19 28 0.0 0.0 0.00 0.89 0.53 54 1009.6
20260505130245 20 326 0.0 0.0 0.00 1.19 0.53 54 1010.0
20260505124745 20 326 0.0 0.0 0.00 1.27 0.53 50 1010.0
20260505124245 20 326 0.0 0.0 0.00 1.27 0.53 51 1009.9
20260505123745 20 326 0.0 0.0 0.00 1.27 0.53 54 1009.9
20260505123245 20 326 0.0 0.0 0.00 1.27 0.53 54 1009.9
20260505122745 20 326 0.0 0.0 0.00 1.27 0.53 57 1009.9
20260505122245 19 326 0.0 0.0 0.00 1.27 0.53 56 1009.9
20260505121745 20 326 0.0 0.0 0.00 1.27 0.53 57 1010.0
20260505121353 19 326 0.0 0.0 0.00 1.27 0.53 59 1010.1
20260505121245 19 326 0.0 0.0 0.00 1.27 0.53 59 1010.1
20260505120745 19 326 0.0 0.0 0.00 1.27 0.53 59 1010.2
20260505120245 19 326 0.0 0.0 0.00 1.27 0.53 60 1010.2
20260505115745 19 326 0.0 0.0 0.00 1.27 0.53 62 1010.3
20260505115245 18 326 0.0 0.0 0.00 1.27 0.53 61 1010.3
20260505114745 18 326 0.0 0.0 0.00 1.27 0.53 63 1010.3
20260505114245 18 326 0.0 0.0 0.00 1.27 0.53 63 1010.3
20260505113745 18 326 0.0 0.0 0.00 1.27 0.53 63 1010.3
20260505113245 18 326 0.0 0.0 0.00 1.27 0.53 63 1010.4
20260505112745 18 326 0.0 0.0 0.00 1.27 0.53 64 1010.4
20260505112245 18 326 0.0 0.0 0.00 1.27 0.53 63 1010.5
20260505111745 19 326 0.0 0.0 0.00 1.27 0.53 63 1010.5
20260505111245 18 326 0.0 0.0 0.00 1.27 0.53 66 1010.6
20260505110745 18 326 0.0 0.0 0.00 1.27 0.53 67 1010.6
20260505110245 18 326 0.0 0.0 0.00 1.27 0.53 66 1010.6
20260505101745 18 326 0.0 0.0 0.00 1.35 0.53 64 1010.7
20260505101245 19 326 0.0 0.0 0.00 1.35 0.53 66 1010.6
20260505100745 18 326 0.0 0.0 0.00 1.35 0.53 66 1010.7
20260505100245 18 326 0.0 0.0 0.00 1.35 0.53 68 1010.7
20260505095745 18 326 0.0 0.0 0.00 1.35 0.53 68 1010.7
20260505095245 18 326 0.0 0.0 0.00 1.35 0.53 71 1010.7
20260505094745 17 326 0.0 0.0 0.00 1.35 0.53 71 1010.7
20260505094245 17 326 0.0 3.2 0.00 1.35 0.53 73 1010.7
20260505093745 17 326 0.0 14.5 0.00 1.35 0.53 74 1010.7
20260505093245 17 300 0.0 0.0 0.00 1.35 0.53 77 1010.7
20260505092745 16 300 0.0 0.0 0.00 1.35 0.53 78 1010.6
20260505092245 16 300 0.0 11.3 0.00 1.35 0.53 79 1010.6
20260505091745 16 317 0.0 12.9 0.00 1.35 0.53 79 1010.7
20260505091245 16 338 8.0 14.5 0.00 1.35 0.53 80 1010.7
20260505090745 16 300 0.0 14.5 0.00 1.35 0.53 80 1010.7
20260505090245 16 334 0.0 16.1 0.00 1.35 0.53 80 1010.7
20260505085745 16 312 14.5 16.1 0.00 1.35 0.53 80 1010.6
20260505085245 16 351 1.6 17.7 0.00 1.35 0.53 81 1010.6
20260505084745 15 316 14.5 17.7 0.00 1.35 0.53 81 1010.6
20260505084245 15 310 9.7 16.1 0.00 1.35 0.53 82 1010.6
20260505083745 15 300 0.0 16.1 0.00 1.35 0.53 82 1010.5
20260505083245 15 316 9.7 16.1 0.00 1.35 0.53 83 1010.5
20260505082745 15 300 0.0 19.3 0.00 1.35 0.53 84 1010.5
20260505082245 15 300 0.0 17.7 0.00 1.35 0.53 85 1010.5
20260505081745 15 324 9.7 14.5 0.00 1.35 0.53 85 1010.4
20260505081245 15 331 4.8 12.9 0.00 1.35 0.53 85 1010.5
20260505080745 15 300 0.0 12.9 0.00 1.35 0.53 85 1010.4
20260505080245 15 300 8.0 14.5 0.00 1.35 0.53 85 1010.4
20260505075745 15 300 8.0 12.9 0.00 1.35 0.53 86 1010.4
20260505075245 15 300 8.0 12.9 0.00 1.37 0.53 86 1010.4
20260505074745 15 300 0.0 4.8 0.00 1.37 0.53 87 1010.4
20260505074245 15 300 0.0 8.0 0.00 1.37 0.53 87 1010.3
20260505073745 15 329 0.0 14.5 0.00 1.37 0.53 87 1010.3
20260505073245 15 343 0.0 14.5 0.00 1.37 0.53 87 1010.4
20260505072745 15 300 0.0 9.7 0.00 1.37 0.53 88 1010.4
20260505072245 15 331 0.0 8.0 0.00 1.37 0.53 88 1010.2
20260505071745 15 300 8.0 8.0 0.00 1.37 0.53 88 1010.2
20260505071245 15 343 0.0 11.3 0.00 1.37 0.53 88 1010.3
20260505070745 15 300 0.0 12.9 0.00 1.37 0.53 88 1010.2
20260505070245 15 350 0.0 14.5 0.00 1.37 0.53 88 1010.1
20260505065745 15 341 0.0 12.9 0.00 1.37 0.53 88 1010.0
20260505065245 15 348 0.0 12.9 0.00 1.40 0.53 88 1010.0
20260505064745 15 336 11.3 17.7 0.00 1.40 0.53 88 1009.9
20260505064245 15 300 0.0 16.1 0.00 1.40 0.53 87 1009.9
20260505063745 15 300 0.0 17.7 0.00 1.40 0.53 87 1009.8
20260505063245 15 300 9.7 14.5 0.00 1.40 0.53 86 1009.7
20260505062745 16 300 0.0 8.0 0.00 1.40 0.53 87 1009.7
20260505062245 16 300 0.0 12.9 0.00 1.40 0.53 87 1009.7
20260505061745 16 300 6.4 14.5 0.00 1.40 0.53 88 1009.5
20260505061245 15 217 9.7 12.9 0.00 1.40 0.53 88 1009.3
20260505060745 15 188 9.7 12.9 0.00 1.40 0.53 89 1009.3
20260505060245 15 182 0.0 14.5 0.00 1.40 0.53 89 1009.3
20260505055745 15 300 9.7 14.5 0.00 1.40 0.53 89 1009.3
20260505055245 15 300 0.0 12.9 0.00 1.45 0.53 89 1009.1
20260505054745 15 177 0.0 9.7 0.00 1.45 0.53 89 1009.2
20260505054245 15 174 6.4 14.5 0.00 1.45 0.53 89 1009.1
20260505053745 15 300 8.0 14.5 0.00 1.45 0.53 89 1009.1
20260505053245 15 189 6.4 14.5 0.00 1.45 0.53 89 1009.1
20260505052745 15 225 9.7 12.9 0.00 1.45 0.53 89 1009.1
20260505052245 15 163 9.7 11.3 0.00 1.45 0.53 90 1009.0
20260505051745 15 300 3.2 14.5 0.00 1.45 0.53 90 1008.9
20260505051245 14 188 0.0 14.5 0.00 1.45 0.53 90 1008.9
20260505050745 14 136 3.2 14.5 0.00 1.45 0.53 90 1008.9
20260505050245 14 146 0.0 8.0 0.00 1.45 0.53 90 1008.9
20260505041745 14 119 0.0 9.7 0.00 1.45 0.53 90 1008.9
20260505041245 14 170 0.0 11.3 0.00 1.45 0.53 91 1008.9
20260505040745 14 300 0.0 0.0 0.00 1.45 0.53 91 1008.9
20260505040245 14 300 0.0 0.0 0.00 1.45 0.53 91 1009.0
20260505035745 13 300 0.0 4.8 0.00 1.45 0.53 91 1009.0
20260505035245 13 168 0.0 12.9 0.00 1.45 0.53 91 1008.9
20260505034745 13 201 0.0 0.0 0.00 1.45 0.53 91 1008.9
20260505034245 13 201 0.0 0.0 0.00 1.45 0.53 91 1008.8
20260505033745 13 201 0.0 0.0 0.00 1.45 0.53 91 1008.7
20260505033245 13 201 0.0 0.0 0.00 1.45 0.53 91 1008.7
20260505032746 13 201 0.0 0.0 0.00 1.45 0.53 90 1008.5
20260505032245 13 201 0.0 0.0 0.00 1.45 0.53 90 1008.6
20260505031746 13 201 0.0 0.0 0.00 1.45 0.53 90 1008.5
20260505031245 14 201 0.0 0.0 0.00 1.45 0.53 90 1008.5
20260505030745 13 201 0.0 4.8 0.00 1.45 0.53 90 1008.6
20260505030246 14 75 0.0 0.0 0.00 1.45 0.53 90 1008.6
20260505025746 13 75 0.0 0.0 0.00 1.45 0.53 90 1008.6
20260505025246 14 75 0.0 12.9 0.00 1.60 0.53 90 1008.6
20260505024746 14 98 0.0 14.5 0.00 1.60 0.53 90 1008.6
20260505024246 14 137 9.7 12.9 0.00 1.60 0.53 90 1008.7
20260505023746 14 113 11.3 16.1 0.00 1.60 0.53 90 1008.8
20260505023246 14 132 8.0 14.5 0.00 1.60 0.53 90 1008.8
20260505022746 13 144 9.7 12.9 0.03 1.60 0.53 90 1009.0
20260505022246 14 300 11.3 17.7 0.03 1.60 0.53 90 1009.0
20260505021746 14 160 8.0 14.5 0.03 1.60 0.53 90 1009.1
20260505021246 14 180 6.4 11.3 0.03 1.60 0.53 90 1009.0
20260505020746 14 205 8.0 16.1 0.03 1.60 0.53 90 1009.1
20260505020246 14 127 6.4 14.5 0.05 1.60 0.53 90 1009.1
20260505015746 14 215 6.4 17.7 0.05 1.60 0.53 90 1009.0
20260505015246 14 300 1.6 16.1 0.05 1.60 0.53 90 1008.9
20260505014746 14 187 0.0 17.7 0.05 1.60 0.53 90 1008.9
20260505014246 14 300 4.8 12.9 0.05 1.60 0.53 90 1009.0
20260505013746 14 300 8.0 19.3 0.05 1.60 0.53 90 1009.0
20260505013246 14 160 14.5 16.1 0.05 1.60 0.53 90 1008.8
20260505012746 14 151 1.6 14.5 0.03 1.57 0.51 89 1008.8
20260505012246 14 104 0.0 14.5 0.03 1.57 0.51 89 1009.0
20260505011746 14 212 0.0 0.0 0.03 1.57 0.51 89 1009.0
20260505011246 14 212 0.0 14.5 0.03 1.57 0.51 89 1008.7
20260505010746 14 156 8.0 16.1 0.03 1.57 0.51 89 1008.8
20260505010246 14 161 0.0 14.5 0.00 1.55 0.48 89 1009.0
20260505005746 14 170 8.0 14.5 0.00 1.55 0.48 89 1009.1
20260505005246 14 300 0.0 22.5 0.00 1.55 0.48 89 1009.2
20260505004746 14 300 11.3 16.1 0.00 1.55 0.48 89 1009.2
20260505004246 14 300 6.4 17.7 0.00 1.55 0.48 90 1009.1
20260505003746 14 300 4.8 17.7 0.00 1.55 0.48 90 1009.1
20260505003246 13 125 11.3 14.5 0.00 1.55 0.48 90 1009.2
20260505002746 14 300 1.6 16.1 0.03 1.55 0.48 90 1009.1
20260505002246 13 125 6.4 12.9 0.03 1.55 0.48 90 1009.0
20260505001746 13 300 6.4 14.5 0.03 1.55 0.48 90 1009.1
20260505001246 14 163 4.8 12.9 0.03 1.55 0.48 90 1009.1
20260505000746 14 300 0.0 14.5 0.05 1.55 0.48 90 1009.2
20260505000246 14 177 6.4 16.1 0.05 1.55 0.48 90 1009.2
20260504235746 14 300 3.2 14.5 0.05 1.55 0.48 90 1009.2
20260504235246 13 167 11.3 14.5 0.05 1.55 0.48 90 1009.2
20260504234746 13 300 11.3 17.7 0.08 1.55 0.48 90 1009.1
20260504234246 13 156 1.6 16.1 0.10 1.55 0.48 90 1009.2
20260504233746 13 222 0.0 14.5 0.13 1.55 0.48 90 1009.3
20260504233246 13 300 0.0 19.3 0.15 1.55 0.48 90 1009.2
20260504232746 14 142 8.0 14.5 0.15 1.52 0.46 90 1009.3
20260504232246 14 300 9.7 14.5 0.18 1.52 0.46 90 1009.3
20260504231746 14 142 3.2 14.5 0.33 1.52 0.46 90 1009.3
20260504231246 14 168 3.2 17.7 0.38 1.52 0.46 90 1009.3
20260504230746 14 139 17.7 20.9 0.38 1.50 0.43 91 1009.1
20260504230246 13 171 9.7 12.9 0.41 1.50 0.43 91 1009.2
20260504225746 14 105 4.8 14.5 0.43 1.50 0.43 90 1009.3
20260504225246 14 154 0.0 12.9 0.51 1.50 0.43 90 1009.4
20260504224746 14 136 9.7 16.1 0.51 1.47 0.41 90 1009.3
20260504224246 13 156 9.7 12.9 0.51 1.45 0.38 90 1009.5
20260504223746 14 160 0.0 17.7 0.51 1.42 0.36 90 1009.6
20260504223246 13 300 3.2 14.5 0.51 1.40 0.33 90 1009.6
20260504222746 14 139 4.8 14.5 0.48 1.37 0.30 89 1009.5
20260504222246 13 203 9.7 19.3 0.46 1.35 0.28 89 1009.6
20260504221746 13 164 0.0 22.5 0.30 1.19 0.13 89 1009.8
20260504221246 14 129 3.2 16.1 0.25 1.14 0.08 87 1009.6
20260504220746 14 132 6.4 19.3 0.23 1.12 0.05 87 1009.6
20260504220246 14 300 1.6 14.5 0.20 1.09 0.03 86 1009.7
20260504215746 14 135 9.7 25.7 0.18 1.07 1.07 86 1009.7
20260504215246 15 136 0.0 14.5 0.10 0.99 0.99 83 1010.0
20260504214746 14 154 0.0 12.9 0.08 0.97 0.97 82 1010.0
20260504214246 14 160 0.0 12.9 0.05 0.94 0.94 81 1010.0
20260504213746 15 300 4.8 11.3 0.03 0.91 0.91 80 1010.1
20260504213246 15 300 3.2 14.5 0.00 0.89 0.89 78 1010.2
20260504212746 15 300 1.6 11.3 0.00 0.89 0.89 77 1010.3
20260504212246 15 122 0.0 14.5 0.00 0.89 0.89 77 1010.3
20260504211746 15 300 0.0 14.5 0.00 0.89 0.89 76 1010.4
20260504211246 15 184 0.0 12.9 0.00 0.89 0.89 75 1010.4
20260504210746 15 158 1.6 14.5 0.00 0.89 0.89 75 1010.4
20260504210246 15 300 9.7 12.9 0.00 0.89 0.89 75 1010.4
20260504205746 15 164 0.0 12.9 0.00 0.89 0.89 74 1010.4
20260504205246 15 215 4.8 14.5 0.00 0.89 0.89 74 1010.4
20260504204746 15 123 0.0 11.3 0.00 0.89 0.89 74 1010.4
20260504204246 15 194 1.6 14.5 0.00 0.89 0.89 73 1010.5
20260504203746 15 123 12.9 20.9 0.00 0.89 0.89 73 1010.5
20260504203246 15 217 9.7 20.9 0.00 0.89 0.89 75 1010.5
20260504202746 15 142 4.8 17.7 0.00 0.89 0.89 75 1010.5
20260504202246 15 192 14.5 14.5 0.00 0.89 0.89 76 1010.7
20260504201746 15 217 1.6 14.5 0.00 0.89 0.89 77 1010.8
20260504201246 15 300 11.3 22.5 0.00 0.89 0.89 76 1010.5
20260504200746 14 171 12.9 19.3 0.00 0.89 0.89 77 1010.5
20260504200246 15 300 0.0 22.5 0.00 0.89 0.89 77 1010.6
20260504195746 15 196 11.3 20.9 0.00 0.89 0.89 77 1010.7
20260504195246 14 151 0.0 27.4 0.00 0.89 0.89 77 1010.7
20260504194746 14 137 16.1 27.4 0.00 0.89 0.89 78 1010.7
20260504194246 14 125 14.5 25.7 0.00 0.89 0.89 78 1010.7
20260504193746 14 192 16.1 24.1 0.00 0.89 0.89 79 1010.8
20260504193246 13 300 14.5 25.7 0.03 0.89 0.89 80 1010.8
20260504192746 13 300 14.5 20.9 0.08 0.89 0.89 82 1010.8
20260504192246 13 118 9.7 16.1 0.10 0.89 0.89 81 1010.7
20260504191746 13 147 8.0 20.9 0.10 0.89 0.89 82 1010.6
20260504191246 13 177 12.9 17.7 0.10 0.89 0.89 82 1010.6
20260504190746 13 195 6.4 14.5 0.10 0.89 0.89 83 1010.6
20260504190246 13 82 6.4 17.7 0.13 0.89 0.89 83 1010.6
20260504185746 13 171 4.8 19.3 0.15 0.89 0.89 85 1010.5
20260504185246 13 122 6.4 14.5 0.15 0.89 0.89 86 1010.6
20260504184746 13 139 8.0 12.9 0.15 0.89 0.89 86 1010.5
20260504184246 13 108 8.0 12.9 0.15 0.89 0.89 85 1010.6
20260504183746 13 126 1.6 14.5 0.15 0.89 0.89 85 1010.6
20260504183247 13 300 9.7 14.5 0.13 0.86 0.86 84 1010.7
20260504182746 13 54 0.0 4.8 0.08 0.81 0.81 84 1010.7
20260504182246 14 84 0.0 0.0 0.05 0.79 0.79 84 1010.7
20260504181746 14 84 0.0 6.4 0.05 0.79 0.79 83 1010.6
20260504181246 14 115 3.2 22.5 0.05 0.79 0.79 83 1010.7
20260504180746 15 91 8.0 11.3 0.05 0.79 0.79 82 1010.8